Find Starlink 2666

NORAD ID: 48666 Int'l Des: 2021-044 Owner: SPXS Country: US Constellation: starlink operational
LEOCIRCULARSTARLINK_TYPE

Live Position

Loading 3D Globe...

About Starlink 2666

Description loading...

Upcoming Passes

Passes for default location (London). Set your location on the main map for personalized predictions.

Altitude History

Loading altitude history...

Two-Line Element Set

1 48666U 21044AE 26106.79404817 -.00002277 00000-0 -64795-4 0 9991
2 48666 53.1614 296.8661 0001197 90.1213 269.9925 15.30186740269648
Epoch: Apr 16, 2026 • Age: 21 hours

Current Status

Altitude 475.1 km
Velocity 7.63 km/s
Sub-Earth Point 13.62°N, 14.42°E
Launch Date May 26, 2021
Age 4.8 years
Type internet

Technical Details

Classification Payload
Mass 260.00 kg
Dry Mass 248.00 kg
Total Mass 260.00 kg
Length 0.20 m
Diameter 2.80 m
Span 9.00 m
Shape Box + pan
Manufacturer SPXS
Bus Type Starlink
Phase Status In Orbit
Owner/State SPXS/US

Most Searched